{"data":{"norad_id":65135,"intl_designator":"2025-171D","name":"KUIPER-00096","alt_names":[],"object_type":"PAYLOAD","status":"ACTIVE","operator":null,"country":"US","launch_date":"2025-08-11","launch_site_code":"AFETR","launch_vehicle":null,"mission":null,"orbit_class":"UNKNOWN","rcs_meters":null,"size_class":null,"mass_kg":null,"dimensions":null,"purposes":[],"wikipedia_slug":null,"has_3d_model":false,"image_url":null,"decayed_at":null,"tle_current":{"epoch":"2026-09-21T13:57:18.629568Z","epoch_age_seconds":71760,"freshness":"FRESH","line1":"1 65135U 25171D   26264.58146562  .00000249  00000+0  61689-4 0  9991","line2":"2 65135  51.9011  11.8324 0000196 112.1041 247.9942 14.79932951 61907","mean_motion":14.79932951,"eccentricity":1.96e-5,"inclination_deg":51.9011,"raan_deg":11.8324,"arg_perigee_deg":112.1041,"mean_anomaly_deg":247.9942,"bstar":6.1689e-5,"rev_number":6190,"period_min":97.301705393274,"perigee_km":629.39843346929,"apogee_km":629.67313424242,"semimajor_km":7007.6727838559,"source":"CELESTRAK","updated_at":"2026-09-22T09:00:30.149769Z"}}}